Waarnemingen

Advertentie
Mijn weer
Camborne, Groot Brittannië (3808): temperatuur & dauwpunt: 13.06.2018 21:00:00 - 19.06.2018 21:00:00 (BST)Camborne, Groot Brittannië (3808): temperatuur -20cm & temperatuur -100cm: 13.06.2018 21:00:00 - 19.06.2018 21:00:00 (BST)Camborne, Groot Brittannië (3808): windsnelheid & windstoten: 13.06.2018 21:00:00 - 19.06.2018 21:00:00 (BST)Camborne, Groot Brittannië (3808): windrichting: 13.06.2018 21:00:00 - 19.06.2018 21:00:00 (BST)Camborne, Groot Brittannië (3808): luchtdruk: 13.06.2018 21:00:00 - 19.06.2018 21:00:00 (BST)Camborne, Groot Brittannië (3808): zicht: 13.06.2018 21:00:00 - 19.06.2018 21:00:00 (BST)Camborne, Groot Brittannië (3808): Zonneschijnduur: 13.06.2018 21:00:00 - 19.06.2018 21:00:00 (BST)Camborne, Groot Brittannië (3808): neerslag: 13.06.2018 21:00:00 - 19.06.2018 21:00:00 (BST)
Datum & Tijd tt [°C] td [°C] tt -20cm [°C] tt -100cm [°C] ff [km/u] ff [kn] fx [km/u] fx [kn] dd ppp [hPa] vv [km] sd [min] rr [mm]
19.06.2018 21:00:00 - - - - - - - - - - - - 0,0
19.06.2018 20:00:00 16,8 15,1 - - 15 8 - - ZW 1023,7 15 0 0,0
19.06.2018 19:00:00 16,9 15,3 - - 13 7 - - ZW 1023,9 5 0 0,0
19.06.2018 18:00:00 18,2 15,8 - - 22 12 - - ZW 1024,1 12 0 0,0
19.06.2018 17:00:00 18,9 15,5 - - 24 13 - - ZW 1024,1 30 0 0,0
19.06.2018 16:00:00 19,0 15,5 - - 18 10 - - ZW 1024,2 30 12 0,0
19.06.2018 15:00:00 19,0 15,7 - - 18 10 - - ZW 1024,4 30 0 0,0
19.06.2018 14:00:00 18,8 15,8 - - 18 10 - - ZZW 1024,4 30 0 0,0
19.06.2018 13:00:00 18,9 16,2 - - 18 10 - - ZW 1024,5 25 6 0,0
19.06.2018 12:00:00 18,4 16,4 - - 18 10 - - WZW 1024,9 9 0 0,2
19.06.2018 11:00:00 17,3 16,7 - - 15 8 - - WZW 1024,9 5 0 0,2
19.06.2018 10:00:00 16,5 16,1 17,0 16,0 16 9 - - ZW 1024,9 1,2 0 0,0
19.06.2018 09:00:00 16,4 16,1 - - 16 9 - - WZW 1024,8 1,0 0 0,2
19.06.2018 08:00:00 15,6 15,5 - - 13 7 - - ZW 1024,6 2,5 0 0,0
19.06.2018 07:00:00 15,6 15,4 - - 11 6 - - ZW 1024,2 2,5 0 0,0
19.06.2018 06:00:00 15,3 15,1 - - 9 5 - - WZW 1024,0 4,0 0 0,0
19.06.2018 05:00:00 15,4 15,1 - - 11 6 - - WZW 1023,9 6 0 0,0
19.06.2018 04:00:00 15,4 15,1 - - 13 7 - - WZW 1024,0 5 0 0,0
19.06.2018 03:00:00 15,5 15,2 - - 15 8 - - WZW 1024,0 3,5 0 0,0
19.06.2018 02:00:00 15,7 15,2 - - 15 8 - - WZW 1024,0 4,0 0 0,0
19.06.2018 01:00:00 15,8 15,1 - - 18 10 - - WZW 1024,1 6 - -
19.06.2018 00:00:00 15,7 15,2 - - 16 9 - - WZW 1024,2 5 0 0,0
18.06.2018 23:00:00 15,7 15,3 - - 18 10 - - WZW 1024,2 5 0 0,0
18.06.2018 22:00:00 15,6 15,3 - - 18 10 - - WZW 1024,0 4,0 0 0,0
18.06.2018 21:00:00 15,8 15,3 - - 18 10 - - WZW 1023,5 5 0 0,0
18.06.2018 20:00:00 15,9 15,3 - - 21 11 - - WZW 1023,2 4,0 0 0,0
18.06.2018 19:00:00 16,3 15,5 - - 22 12 - - WZW 1023,2 3,0 0 0,0
18.06.2018 18:00:00 17,1 15,6 - - 24 13 - - WZW 1022,8 10 0 0,0
18.06.2018 17:00:00 18,2 15,9 - - 18 10 - - ZW 1022,7 15 0 0,0
18.06.2018 16:00:00 19,1 16,0 - - 24 13 - - W 1022,5 15 18 0,0
18.06.2018 15:00:00 19,8 16,4 - - 26 14 - - W 1022,4 20 42 0,0
18.06.2018 14:00:00 18,5 16,2 - - 26 14 - - W 1022,5 20 0 0,0
18.06.2018 13:00:00 18,1 16,6 - - 18 10 - - WZW 1022,5 12 0 0,0
18.06.2018 12:00:00 16,0 15,4 - - 16 9 - - ZW 1022,7 8 0 0,2
18.06.2018 11:00:00 15,5 14,8 - - 18 10 - - ZW 1022,4 1,0 0 0,0
18.06.2018 10:00:00 15,6 13,7 16,7 16,2 16 9 - - W 1022,3 8 0 0,0
18.06.2018 09:00:00 14,5 12,4 - - 16 9 - - WNW 1022,3 9 0 0,0
18.06.2018 08:00:00 14,1 11,8 - - 13 7 - - WNW 1021,8 12 0 0,0
18.06.2018 07:00:00 13,4 11,6 - - 15 8 - - W 1021,3 20 0 0,0
18.06.2018 06:00:00 13,1 11,2 - - 18 10 - - W 1020,7 20 0 0,0
18.06.2018 05:00:00 12,9 11,0 - - 13 7 - - WNW 1020,3 12 0 0,0
18.06.2018 04:00:00 12,6 12,1 - - 22 12 - - WNW 1020,2 4,0 0 0,2
18.06.2018 03:00:00 13,3 13,0 - - 18 10 - - W 1019,9 2,5 0 0,0
18.06.2018 02:00:00 13,3 12,3 - - 16 9 - - W 1019,9 6 0 0,0
18.06.2018 01:00:00 13,5 11,9 - - 18 10 - - W 1019,7 8 - 0,0
18.06.2018 00:00:00 14,1 12,7 - - 16 9 - - WZW 1019,6 10 0 0,0
17.06.2018 23:00:00 14,2 12,3 - - 13 7 - - WZW 1019,2 15 0 0,0
17.06.2018 22:00:00 14,1 12,1 - - 16 9 - - W 1018,8 15 0 0,0
17.06.2018 21:00:00 14,4 12,5 - - 21 11 - - W 1018,3 15 0 0,0
17.06.2018 20:00:00 14,8 13,4 - - 24 13 - - W 1017,9 15 0 0,0
17.06.2018 19:00:00 15,0 14,5 - - 24 13 - - W 1017,4 3,0 0 0,0
17.06.2018 18:00:00 15,8 14,9 - - 22 12 - - W 1017,2 5 0 0,0
17.06.2018 17:00:00 15,9 15,2 - - 15 8 - - WZW 1016,6 16 0 0,0
17.06.2018 16:00:00 16,2 15,3 - - 18 10 - - WZW 1016,5 10 0 0,0
17.06.2018 15:00:00 15,9 15,2 - - 16 9 - - ZW 1016,6 10 0 0,0
17.06.2018 14:00:00 16,3 15,5 - - 22 12 - - WZW 1016,1 2,0 0 0,0
17.06.2018 13:00:00 16,1 15,5 - - 21 11 - - WZW 1016,0 12 0 0,2
17.06.2018 12:00:00 15,3 15,0 - - 18 10 - - ZW 1016,0 1,2 0 0,2
17.06.2018 11:00:00 14,4 14,0 - - 24 13 - - ZZW 1015,9 1,2 0 0,6
17.06.2018 10:00:00 13,7 13,3 17,0 16,2 26 14 - - ZZW 1016,2 1,0 0 0,2
17.06.2018 09:00:00 13,0 12,4 - - 21 11 - - ZZW 1016,6 1,5 0 0,2
17.06.2018 08:00:00 13,6 11,8 - - 21 11 - - ZW 1016,6 12 0 0,0
17.06.2018 07:00:00 13,4 10,5 - - 18 10 - - ZW 1016,8 20 0 0,0
17.06.2018 06:00:00 13,0 10,2 - - 16 9 - - ZW 1016,8 20 0 0,0
17.06.2018 05:00:00 12,7 10,4 - - 15 8 - - ZW 1016,9 18 0 0,0
17.06.2018 04:00:00 12,5 10,1 - - 13 7 - - ZW 1017,1 20 0 0,0
17.06.2018 03:00:00 12,5 9,5 - - 13 7 - - ZW 1017,6 16 0 0,0
17.06.2018 02:00:00 12,8 9,9 - - 13 7 - - WZW 1017,9 16 0 0,0
17.06.2018 01:00:00 12,9 10,1 - - 18 10 - - W 1018,3 14 - 0,0
17.06.2018 00:00:00 12,8 10,4 - - 16 9 - - W 1018,2 16 0 0,0
16.06.2018 23:00:00 12,6 10,1 - - 13 7 - - WZW 1018,1 14 0 0,0
16.06.2018 22:00:00 13,1 9,8 - - 16 9 - - W 1017,5 14 0 0,0
16.06.2018 21:00:00 13,3 10,6 - - 16 9 - - W 1017,2 14 0 0,0
16.06.2018 20:00:00 13,8 10,3 - - 24 13 - - W 1017,1 16 0 0,0
16.06.2018 19:00:00 14,0 10,4 - - 21 11 - - W 1016,8 18 0 0,0
16.06.2018 18:00:00 14,1 10,0 - - 26 14 - - W 1016,8 25 0 0,0
16.06.2018 17:00:00 14,2 9,3 - - 26 14 - - W 1016,7 15 0 0,0
16.06.2018 16:00:00 14,6 10,1 - - 21 11 - - W 1016,3 25 0 0,0
16.06.2018 15:00:00 14,6 9,8 - - 22 12 - - W 1016,0 25 12 0,0
16.06.2018 14:00:00 16,0 9,8 - - 24 13 - - W 1015,4 25 6 0,0
16.06.2018 13:00:00 14,3 9,7 - - 28 15 - - W 1015,0 20 0 0,0
16.06.2018 12:00:00 14,2 11,8 - - 21 11 - - W 1014,7 15 0 0,0
16.06.2018 11:00:00 14,3 13,4 - - 31 17 - - W 1013,7 3,5 0 0,0
16.06.2018 10:00:00 15,0 13,8 17,4 16,2 21 11 - - WZW 1013,0 20 0 0,0
16.06.2018 09:00:00 13,9 13,6 - - 24 13 - - ZZW 1012,8 4,0 0 0,6
16.06.2018 08:00:00 13,0 12,7 - - 22 12 - - ZZW 1013,0 2,5 0 0,2
16.06.2018 07:00:00 12,7 12,1 - - 21 11 - - ZZW 1013,3 3,0 0 0,0
16.06.2018 06:00:00 12,5 11,5 - - 15 8 - - ZZW 1013,7 15 0 0,2
16.06.2018 05:00:00 13,1 11,5 - - 13 7 - - ZZW 1014,1 14 0 0,0
16.06.2018 04:00:00 12,8 11,0 - - 18 10 - - ZZW 1014,4 20 0 0,0
16.06.2018 03:00:00 12,8 10,4 - - 13 7 - - ZZW 1015,2 14 0 0,0
16.06.2018 02:00:00 12,5 10,6 - - 9 5 - - ZZW 1015,8 20 0 0,0
16.06.2018 01:00:00 12,1 10,1 - - 9 5 - - ZZW 1016,4 22 - 0,0
16.06.2018 00:00:00 12,1 9,2 - - 9 5 - - ZW 1016,8 25 0 0,0
15.06.2018 23:00:00 12,3 9,6 - - 5 3 - - ZZW 1017,1 25 0 0,0
15.06.2018 22:00:00 12,6 9,3 - - 8 4 - - ZZW 1017,4 30 0 0,0
15.06.2018 21:00:00 13,1 9,2 - - 9 5 - - WZW 1017,6 30 0 0,0
15.06.2018 20:00:00 14,1 8,6 - - 15 8 - - W 1018,0 22 0 0,0
15.06.2018 19:00:00 14,7 7,4 - - 11 6 - - W 1017,5 28 12 0,0
15.06.2018 18:00:00 15,2 9,3 - - 21 11 - - W 1018,0 26 18 0,0
15.06.2018 17:00:00 16,1 9,3 - - 24 13 - - WNW 1018,4 24 6 0,0
15.06.2018 16:00:00 16,1 8,4 - - 16 9 - - WNW 1018,5 22 54 0,0
15.06.2018 15:00:00 15,7 8,1 - - 16 9 - - W 1019,0 30 12 0,0
15.06.2018 14:00:00 14,9 11,3 - - 24 13 - - WNW 1019,1 22 0 0,0
15.06.2018 13:00:00 15,2 10,4 - - 21 11 - - WNW 1019,0 24 0 0,0
15.06.2018 12:00:00 15,3 10,5 - - 18 10 - - WNW 1018,8 22 18 0,0
15.06.2018 11:00:00 15,2 10,5 - - 18 10 - - WNW 1018,9 22 54 0,0
15.06.2018 10:00:00 14,9 10,1 17,2 16,2 15 8 - - WNW 1018,9 20 60 0,0
15.06.2018 09:00:00 14,5 10,8 - - 15 8 - - W 1018,6 22 54 0,0
15.06.2018 08:00:00 13,9 11,4 - - 9 5 - - WZW 1018,5 18 24 0,0
15.06.2018 07:00:00 11,6 9,9 - - 8 4 - - ZW 1018,6 18 0 0,0
15.06.2018 06:00:00 10,6 9,3 - - 9 5 - - ZW 1018,6 25 0 0,0
15.06.2018 05:00:00 9,9 9,1 - - 8 4 - - ZZW 1018,4 20 0 0,0
15.06.2018 04:00:00 10,3 9,6 - - 8 4 - - WZW 1018,6 10 0 0,0
15.06.2018 03:00:00 10,1 9,2 - - 8 4 - - W 1018,6 12 0 0,0
15.06.2018 02:00:00 11,5 10,0 - - 11 6 - - W 1018,7 10 0 0,0
15.06.2018 01:00:00 12,1 10,9 - - 9 5 - - W 1019,1 7 - 0,0
15.06.2018 00:00:00 11,1 10,3 - - 5 3 - - W 1018,7 8 0 0,0
14.06.2018 23:00:00 11,4 10,3 - - 5 3 - - W 1018,7 9 0 0,0
14.06.2018 22:00:00 12,0 10,7 - - 8 4 - - WNW 1018,7 12 6 0,0
14.06.2018 21:00:00 13,4 11,1 - - 11 6 - - W 1018,2 18 60 0,0
14.06.2018 20:00:00 14,5 11,4 - - 16 9 - - WNW 1017,8 18 60 0,0
14.06.2018 19:00:00 15,9 11,6 - - 16 9 - - NW 1017,2 18 60 0,0
14.06.2018 18:00:00 16,1 11,4 - - 22 12 - - NW 1017,1 18 54 0,0
14.06.2018 17:00:00 15,8 11,2 - - 22 12 - - NW 1016,8 11 60 0,0
14.06.2018 16:00:00 15,8 11,4 - - 21 11 - - NW 1016,6 14 30 0,0
14.06.2018 15:00:00 16,0 11,1 - - 21 11 - - NNW 1016,0 16 54 0,0
14.06.2018 14:00:00 16,9 12,0 - - 26 14 - - WNW 1015,7 18 60 0,0
14.06.2018 13:00:00 16,3 10,6 - - 24 13 - - WNW 1015,3 16 54 0,0
14.06.2018 12:00:00 16,0 11,9 - - 21 11 - - NW 1014,6 10 18 0,0
14.06.2018 11:00:00 15,2 10,8 - - 24 13 - - WNW 1013,5 12 6 0,0
14.06.2018 10:00:00 14,3 11,8 17,4 16,2 24 13 46 25 WNW 1013,2 8 0 0,0
14.06.2018 09:00:00 14,8 12,4 - - 21 11 46 25 W 1012,4 8 0 0,0
14.06.2018 08:00:00 14,5 12,3 - - 24 13 - - W 1011,6 8 6 0,0
14.06.2018 07:00:00 14,9 14,0 - - 29 16 54 29 W 1010,8 7 0 0,2
14.06.2018 06:00:00 15,4 15,1 - - 28 15 52 28 ZW 1010,4 3,0 0 0,6
14.06.2018 05:00:00 15,0 14,8 - - 31 17 50 27 ZW 1010,7 2,1 0 0,8
14.06.2018 04:00:00 14,7 14,3 - - 34 18 55 30 ZW 1010,9 3,0 0 0,0
14.06.2018 03:00:00 14,5 14,1 - - 31 17 52 28 ZZW 1011,7 4,0 0 0,0
14.06.2018 02:00:00 14,8 13,3 - - 31 17 46 25 ZZW 1012,4 7 0 0,0
14.06.2018 01:00:00 14,7 12,9 - - 26 14 46 25 ZZW 1013,1 15 - 0,0
14.06.2018 00:00:00 14,6 12,4 - - 24 13 - - ZZW 1014,1 15 0 0,0
13.06.2018 23:00:00 14,6 12,4 - - 24 13 - - ZZW 1015,0 15 0 0,0
13.06.2018 22:00:00 14,6 11,9 - - 22 12 - - ZW 1015,7 25 0 0,0
13.06.2018 21:00:00 14,8 11,6 - - 24 13 - - ZW 1016,3 25 0 0,0

tt = temperatuur
td = dauwpunt
tt -20cm = temperatuur -20cm
tt -100cm = temperatuur -100cm
ff = windsnelheid
fx = windstoten
dd = windrichting
ppp = luchtdruk
vv = zicht
sd = Zonneschijnduur
rr = neerslag

Weerstations in de omgeving